Wind_Speed
10 12 16 22 22 19 19 20 23 26 31 34 42 52 59 61 65 60 58 62 83 92 96 95 82 84 86 83 80 79 77 72 63 60 68 62 61 50 55 52 47 47 42 45
11 16 18 20 22 20 19 20 21 23 28 35 43 52 55 59 63 62 61 69 86 92 96 92 80 81 88 82 73 72 79 67 66 60 62 53 59 57 54 53 52 48 49 45
22 23 27 27 29 26 23 21 22 23 27 34 44 50 54 54 58 59 61 73 88 90 96 83 84 84 89 84 78 80 75 68 61 63 66 63 59 58 52 47 43 45 46 49
26 24 29 29 29 27 25 23 22 25 30 32 37 45 51 53 54 57 66 77 88 91 98 85 92 91 86 83 81 75 75 66 62 64 63 64 57 54 58 58 49 51 49 51
26 28 30 32 34 29 28 27 27 26 26 25 31 38 46 51 58 62 68 76 85 93 98 90 95 94 90 83 78 78 74 67 69 63 56 60 56 61 54 54 52 53 56 58
31 36 31 31 42 40 39 38 36 34 32 28 29 34 40 47 55 60 67 77 87 95 97 91 94 97 92 86 82 76 74 74 73 70 61 63 58 67 67 63 60 56 55 57
33 40 37 36 42 48 53 46 43 43 41 39 39 36 36 38 54 62 67 76 85 94 97 93 92 99 95 88 85 81 79 75 75 71 62 63 55 63 57 62 64 60 61 56
37 38 37 40 43 49 53 47 48 48 48 45 48 51 50 48 57 65 66 74 83 91 96 96 90 95 98 93 86 86 87 84 74 68 67 61 64 69 69 58 57 55 57 55
38 40 36 40 39 42 55 53 50 50 50 45 43 48 51 52 56 67 68 75 78 87 92 95 92 88 97 94 88 90 89 87 83 81 72 67 56 61 60 59 60 58 63 63
32 32 35 38 37 43 47 55 51 50 48 47 48 51 49 50 52 67 78 77 80 85 89 94 94 89 91 96 94 85 87 88 87 81 81 71 68 59 59 64 64 69 68 72
18 29 32 35 39 43 47 51 53 53 51 50 53 57 59 56 62 65 72 79 83 84 88 92 97 95 90 95 96 89 84 76 82 73 69 72 70 76 65 65 67 66 62 59
19 27 29 30 37 38 41 48 57 56 61 57 57 58 66 65 68 67 73 81 82 84 91 97 96 99 95 91 96 99 94 86 77 68 72 67 66 67 57 53 60 62 64 66
28 25 29 26 32 30 34 38 42 56 60 58 58 60 69 71 69 68 73 79 81 83 86 94 97 96 98 98 98 99 99 92 86 81 83 84 69 70 79 68 65 70 75 74
14 27 36 35 32 33 33 29 34 48 51 60 63 64 70 71 71 74 77 80 83 85 88 90 95 97 97 97 97 102 99 93 93 93 89 91 90 87 88 89 88 83 81 82
9 16 23 24 32 38 36 37 37 31 43 54 60 66 66 75 73 77 81 82 85 86 90 95 97 99 100 100 97 99 102 95 93 98 98 99 95 94 91 91 94 96 93 89
8 8 12 16 24 26 24 31 39 40 36 41 52 58 64 71 78 81 82 86 88 87 88 95 99 102 102 101 102 103 107 103 101 104 106 99 98 100 103 100 100 98 99 100
23 18 10 9 15 20 21 23 28 39 40 38 41 45 57 68 77 84 87 88 93 95 93 91 96 99 101 102 99 101 104 109 110 110 112 111 106 104 102 104 106 110 110 109
29 24 18 13 9 12 16 17 19 25 32 37 37 45 50 55 66 84 91 93 96 97 100 101 99 98 100 101 99 100 102 101 110 115 112 108 108 110 109 108 107 103 104 105
46 37 28 21 15 12 11 12 16 18 20 28 32 36 46 57 62 65 77 93 96 102 105 105 104 104 103 104 104 103 104 106 104 105 110 108 107 103 105 105 105 103 103 102
58 52 44 35 28 23 17 15 13 15 18 21 23 30 37 47 60 69 74 78 87 98 102 107 108 111 110 111 108 107 107 107 109 110 110 112 111 109 108 108 110 110 109 107
63 59 55 52 46 38 29 23 18 16 14 16 21 24 27 36 46 58 71 79 86 95 100 106 108 112 114 116 116 115 114 115 115 115 116 117 118 119 117 113 115 114 113 115
62 63 60 56 53 53 49 40 30 22 16 14 14 18 23 28 33 42 52 64 75 83 93 106 107 111 114 116 120 122 122 122 119 118 117 119 122 122 122 122 122 122 122 123
62 61 63 60 59 55 55 55 50 43 33 23 16 14 15 20 28 34 38 45 55 65 75 84 92 105 117 117 119 123 125 127 129 128 126 125 124 124 124 126 127 128 128 128
58 61 63 63 64 61 60 57 55 53 49 44 35 27 18 15 17 23 31 38 43 47 55 64 74 83 92 101 112 123 128 128 131 133 134 135 137 137 136 134 133 135 133 133
56 59 60 61 62 63 63 63 62 56 55 53 47 41 37 31 24 19 21 26 32 40 46 50 56 62 71 80 87 95 102 112 122 131 134 136 138 141 142 142 143 143 142 142
53 55 58 60 61 62 63 65 65 64 61 60 55 52 48 40 36 34 28 23 23 27 32 38 47 53 57 61 67 74 82 89 96 104 111 119 126 134 140 145 147 148 149 149
54 55 57 59 61 63 64 65 65 67 68 64 65 61 57 51 45 39 37 36 31 25 27 31 35 39 45 52 59 63 65 69 75 81 87 93 99 105 110 116 124 133 141 146
Wind_Direction
129 141 156 154 158 171 184 194 202 204 201 197 194 197 203 206 208 207 205 199 196 197 195 201 203 196 195 196 196 203 208 214 217 219 215 224 232 244 253 259 252 250 250 257
93 122 129 143 144 149 158 171 184 194 191 184 182 191 196 200 203 204 200 194 194 194 194 200 197 192 194 194 198 206 211 215 214 217 221 231 238 250 251 255 257 253 252 256
112 132 135 139 139 137 144 154 164 169 169 171 181 188 190 193 197 197 193 192 192 193 195 197 192 192 194 197 205 208 212 208 213 216 220 232 238 241 244 251 254 261 259 256
128 139 132 140 139 141 147 141 135 149 162 174 178 184 187 191 193 193 191 192 192 190 194 193 192 194 196 194 199 203 206 209 210 215 223 227 235 241 241 251 259 262 258 260
128 130 135 135 122 116 114 116 123 137 149 156 166 176 182 185 194 190 190 191 191 191 194 196 192 194 191 191 193 201 208 212 213 215 225 234 236 235 241 245 256 261 264 270
135 131 144 149 129 128 119 125 127 132 136 143 158 176 181 185 194 193 190 190 191 192 196 196 194 193 193 197 201 201 208 213 216 215 225 230 240 238 245 247 262 263 266 264
152 148 151 147 141 133 133 137 137 136 138 141 146 153 161 181 196 192 191 191 194 194 197 198 199 195 196 198 204 206 208 213 216 222 228 232 237 230 250 257 258 262 260 260
159 156 157 152 155 143 147 150 145 145 143 158 165 169 166 181 194 192 192 195 195 197 200 200 202 202 198 204 206 210 210 211 217 225 230 234 236 245 249 247 249 252 251 262
170 171 176 168 168 160 153 156 155 156 155 157 167 175 178 188 192 192 192 195 198 199 202 203 204 205 205 208 208 211 214 218 225 225 228 232 237 240 243 250 250 255 259 262
180 181 178 179 174 162 163 167 168 164 160 163 170 170 184 183 193 195 193 194 198 199 203 205 205 206 209 209 212 215 218 222 224 229 232 236 235 243 252 256 261 266 264 263
213 196 197 196 190 171 176 175 175 174 171 178 175 175 182 186 190 194 198 196 199 200 203 205 206 208 208 210 212 214 215 219 225 228 233 239 243 244 250 254 256 253 257 257
226 210 209 209 211 194 191 192 186 186 181 189 181 187 183 187 197 195 196 200 198 201 204 206 207 209 209 210 214 216 219 217 219 223 231 232 231 234 240 245 245 250 257 261
221 234 233 239 230 230 215 205 207 195 197 195 192 194 191 195 195 196 199 200 201 204 207 208 208 212 213 213 216 219 222 221 222 224 223 225 225 229 235 240 245 247 251 256
272 232 231 247 244 244 249 243 229 216 215 207 204 201 199 201 198 201 202 203 203 207 210 210 212 214 215 218 221 221 224 226 227 224 224 227 231 233 239 244 250 251 253 255
284 266 274 253 248 243 250 253 253 248 234 226 219 213 206 206 203 205 207 204 207 211 212 213 214 215 218 219 221 225 225 224 226 226 229 230 232 237 240 242 245 248 251 252
30 323 286 265 269 275 267 250 247 248 241 237 230 226 221 215 209 206 211 208 208 212 215 218 217 218 220 222 224 226 226 226 225 225 227 234 238 241 244 246 248 248 250 253
37 26 0 315 291 283 275 264 255 251 247 231 224 231 229 224 220 212 214 213 214 213 214 216 222 222 223 224 226 227 229 231 229 228 230 234 237 241 245 247 251 254 257 258
42 43 35 16 337 305 298 288 267 255 252 251 238 223 230 237 231 225 217 217 219 219 219 218 220 221 224 226 228 229 231 232 234 235 236 237 239 242 243 246 248 250 253 256
40 38 35 34 33 12 335 300 291 283 261 250 246 238 229 229 237 236 232 226 225 225 222 223 222 222 225 228 228 231 231 233 234 237 238 238 240 242 244 245 247 248 250 253
36 34 35 35 34 28 15 1 335 302 286 278 263 248 239 232 229 231 232 233 232 231 231 232 229 228 227 227 228 230 232 236 237 237 239 242 242 242 243 246 247 249 250 252
33 34 35 33 32 32 29 25 10 352 330 298 280 267 254 244 237 233 233 234 233 231 233 233 234 237 235 234 234 234 236 237 238 240 242 244 245 246 246 245 246 248 249 251
28 28 31 33 34 32 29 26 21 16 4 344 315 291 275 261 251 244 240 238 239 238 237 235 235 236 237 239 240 240 239 239 239 241 242 244 246 247 248 248 248 251 253 254
22 24 25 24 26 29 33 33 28 22 14 7 354 337 304 280 268 260 255 248 243 242 243 242 242 241 239 239 241 242 243 244 244 244 243 244 245 247 248 251 253 254 255 255
17 18 19 20 21 20 20 25 28 30 28 20 9 0 347 323 296 278 267 261 258 254 249 247 246 246 245 245 245 245 244 245 246 247 248 249 249 248 249 250 252 253 253 251
12 13 13 15 16 15 15 18 18 19 23 26 23 17 6 353 341 320 296 280 270 264 260 257 255 252 251 251 251 250 249 249 249 248 249 250 251 252 254 255 255 254 254 256
6 7 7 7 9 9 10 10 12 12 14 18 20 23 19 12 358 344 334 316 299 285 274 266 263 261 259 256 255 254 254 254 254 254 253 254 254 255 255 254 255 256 257 259
359 0 1 2 3 3 4 5 5 5 7 9 11 11 14 17 15 5 349 338 330 315 297 288 280 271 266 263 261 259 257 256 256 256 257 258 259 259 259 259 258 258 258 258
Height
10230 10233 10237 10241 10248 10255 10263 10270 10278 10286 10294 10304 10316 10331 10344 10361 10378 10393 10411 10426 10441 10461 10482 10499 10520 10539 10559 10579 10599 10610 10620 10631 10640 10648 10652 10662 10671 10679 10684 10689 10693 10698 10701 10704
10238 10240 10245 10248 10252 10258 10264 10270 10277 10285 10294 10303 10315 10327 10342 10355 10371 10386 10401 10418 10436 10454 10475 10495 10517 10537 10558 10574 10589 10603 10613 10623 10633 10639 10646 10656 10662 10668 10674 10678 10684 10687 10690 10694
10243 10245 10248 10252 10255 10260 10267 10273 10281 10289 10299 10310 10318 10328 10341 10355 10370 10384 10401 10414 10431 10451 10473 10495 10513 10531 10550 10565 10579 10593 10605 10615 10625 10631 10639 10648 10653 10660 10663 10668 10672 10677 10680 10683
10249 10252 10256 10258 10263 10267 10274 10282 10290 10298 10304 10312 10322 10334 10347 10360 10374 10386 10398 10411 10428 10447 10468 10485 10501 10518 10536 10551 10567 10582 10596 10607 10617 10626 10631 10637 10644 10649 10654 10659 10662 10666 10669 10672
10258 10261 10264 10267 10272 10279 10288 10291 10296 10302 10310 10318 10327 10337 10349 10362 10372 10381 10396 10412 10429 10448 10463 10479 10497 10515 10532 10544 10557 10571 10585 10597 10605 10613 10621 10628 10632 10636 10642 10649 10652 10655 10658 10661
10265 10268 10270 10272 10277 10283 10292 10298 10303 10309 10316 10325 10334 10343 10354 10364 10370 10383 10395 10409 10425 10441 10459 10477 10493 10506 10523 10538 10550 10563 10575 10586 10594 10602 10609 10617 10620 10625 10630 10637 10639 10643 10647 10649
10270 10273 10276 10280 10284 10288 10296 10303 10306 10312 10319 10327 10336 10344 10351 10360 10369 10379 10393 10408 10422 10437 10452 10467 10483 10501 10517 10531 10544 10554 10564 10575 10585 10593 10601 10608 10614 10612 10618 10625 10627 10631 10634 10636
10277 10280 10282 10284 10288 10291 10299 10306 10308 10312 10317 10323 10325 10332 10343 10350 10362 10378 10392 10405 10418 10433 10449 10461 10478 10495 10507 10522 10536 10545 10553 10567 10576 10584 10593 10597 10603 10606 10607 10610 10614 10619 10622 10623
10283 10283 10284 10288 10292 10296 10303 10307 10311 10313 10316 10322 10331 10338 10345 10354 10364 10375 10389 10399 10412 10429 10441 10455 10468 10482 10497 10510 10526 10536 10547 10556 10565 10575 10581 10586 10591 10589 10591 10594 10600 10604 10608 10608
10289 10289 10289 10292 10296 10302 10306 10311 10314 10320 10322 10324 10331 10343 10346 10354 10363 10370 10381 10390 10404 10415 10430 10447 10465 10478 10487 10503 10517 10527 10536 10545 10554 10561 10566 10572 10577 10577 10578 10582 10582 10584 10588 10590
10293 10294 10295 10296 10300 10304 10307 10313 10318 10320 10324 10326 10332 10336 10344 10353 10356 10368 10376 10386 10394 10412 10422 10436 10450 10463 10478 10493 10505 10517 10524 10531 10539 10546 10553 10559 10563 10565 10567 10567 10567 10567 10568 10568
10296 10298 10298 10300 10301 10304 10308 10313 10316 10321 10322 10326 10333 10337 10342 10347 10352 10365 10371 10380 10393 10404 10413 10425 10437 10451 10466 10479 10489 10496 10502 10516 10526 10532 10538 10543 10546 10549 10549 10547 10547 10548 10551 10553
10299 10299 10301 10303 10306 10307 10309 10313 10319 10322 10324 10328 10332 10335 10341 10342 10352 10361 10367 10377 10390 10398 10405 10418 10429 10442 10455 10463 10470 10481 10487 10498 10507 10514 10519 10524 10528 10530 10531 10530 10531 10535 10536 10538
10297 10298 10300 10301 10304 10307 10309 10315 10317 10321 10325 10326 10328 10331 10338 10342 10349 10356 10362 10371 10381 10389 10395 10407 10419 10428 10435 10446 10456 10466 10476 10490 10493 10498 10500 10509 10509 10512 10516 10519 10519 10517 10519 10519
10298 10300 10300 10300 10300 10303 10304 10307 10311 10316 10318 10323 10324 10328 10332 10337 10346 10351 10356 10365 10372 10380 10386 10395 10404 10413 10421 10430 10437 10448 10460 10472 10476 10482 10486 10489 10495 10496 10499 10499 10498 10500 10501 10502
10301 10298 10297 10298 10299 10301 10303 10303 10303 10306 10310 10315 10319 10324 10330 10332 10337 10343 10351 10358 10365 10371 10379 10386 10394 10402 10411 10418 10427 10433 10440 10450 10458 10464 10468 10470 10475 10478 10480 10482 10482 10484 10486 10491
10304 10301 10299 10296 10295 10295 10295 10296 10298 10301 10302 10305 10310 10315 10320 10325 10330 10335 10339 10346 10352 10356 10366 10374 10385 10392 10398 10403 10411 10418 10425 10430 10434 10442 10449 10452 10458 10460 10462 10462 10464 10466 10468 10470
10310 10306 10303 10300 10297 10294 10291 10289 10291 10292 10292 10294 10300 10305 10311 10313 10319 10324 10329 10333 10339 10344 10350 10357 10367 10375 10382 10390 10397 10403 10409 10415 10419 10425 10429 10433 10438 10439 10443 10444 10446 10446 10447 10449
10316 10311 10306 10303 10300 10296 10292 10289 10287 10286 10286 10286 10288 10292 10298 10303 10307 10311 10319 10327 10328 10332 10335 10343 10350 10356 10365 10371 10378 10385 10391 10397 10401 10404 10409 10413 10417 10418 10419 10420 10423 10426 10429 10429
10324 10318 10312 10306 10301 10297 10294 10290 10286 10283 10281 10279 10280 10282 10285 10289 10292 10297 10301 10305 10314 10322 10325 10330 10335 10340 10343 10349 10355 10359 10366 10373 10378 10383 10386 10392 10396 10399 10401 10399 10402 10404 10405 10405
10334 10327 10319 10311 10304 10299 10295 10291 10287 10283 10279 10276 10274 10273 10274 10276 10279 10282 10285 10289 10292 10296 10302 10308 10315 10321 10328 10332 10335 10340 10344 10348 10352 10355 10361 10365 10368 10373 10376 10379 10379 10379 10382 10383
10342 10335 10328 10321 10313 10306 10298 10292 10288 10284 10280 10276 10272 10268 10266 10265 10265 10266 10269 10272 10275 10278 10282 10287 10290 10296 10301 10306 10313 10316 10319 10324 10328 10332 10335 10337 10341 10345 10349 10353 10355 10356 10357 10358
10346 10340 10333 10326 10319 10313 10307 10298 10290 10284 10278 10274 10270 10267 10264 10261 10258 10256 10255 10255 10257 10259 10261 10264 10268 10273 10277 10279 10284 10289 10294 10298 10301 10305 10308 10310 10312 10315 10318 10322 10324 10327 10329 10330
10349 10342 10335 10328 10322 10316 10310 10303 10297 10290 10282 10274 10267 10262 10258 10255 10252 10249 10246 10244 10243 10243 10243 10244 10245 10248 10251 10254 10257 10261 10263 10266 10270 10275 10280 10282 10285 10287 10289 10291 10290 10292 10294 10297
10351 10344 10338 10331 10324 10318 10313 10305 10298 10291 10284 10277 10269 10261 10255 10249 10246 10242 10238 10235 10232 10230 10229 10228 10228 10228 10228 10228 10229 10231 10233 10236 10239 10243 10246 10250 10253 10255 10257 10259 10261 10263 10264 10262
10352 10345 10339 10332 10325 10318 10312 10304 10297 10291 10284 10277 10270 10263 10255 10248 10241 10234 10229 10226 10222 10219 10216 10213 10211 10208 10207 10207 10207 10206 10205 10206 10207 10209 10212 10214 10216 10219 10221 10224 10226 10228 10229 10229
10350 10344 10339 10331 10324 10317 10311 10303 10296 10289 10282 10274 10267 10260 10253 10247 10240 10233 10225 10217 10213 10209 10204 10200 10196 10193 10191 10188 10186 10184 10184 10183 10182 10181 10181 10181 10181 10182 10182 10184 10186 10188 10190 10191